Simultaneous Nadir Overpasses (SNOs) Predictions

Prediction of SNOs between GOES-16 and FY3D Satellite Orbit:

Table of predicted SNOs for the next 14.0 days since TLE Epoch: 4/6/2024
Index Date Time (GOES-16) GOES-16 Lat,Lon FY3D Lat,Lon Distance(km) Time Diff (sec)
1 04/07/2024 19:26:59 0.00, -75.22 -0.05, -75.55 37.73 80
2 04/08/2024 19:11:08 0.01, -75.22 0.97, -71.06 474.88 80
3 04/10/2024 07:33:16 -0.01, -75.24 0.27, -76.38 130.25 80
4 04/11/2024 07:12:06 -0.01, -75.25 -0.76, -71.89 382.41 80
5 04/12/2024 19:34:23 0.00, -75.26 -0.47, -77.24 226.71 80
6 04/13/2024 19:18:33 0.00, -75.27 0.55, -72.76 286.41 80
7 04/15/2024 07:40:42 -0.00, -75.30 0.60, -78.09 317.57 80
8 04/16/2024 07:19:31 0.00, -75.31 -0.37, -73.59 195.92 80
9 04/17/2024 19:41:49 -0.00, -75.33 -0.80, -78.95 412.09 80
10 04/18/2024 19:25:57 -0.00, -75.36 0.18, -74.45 102.09 80
